Date,TemperatureHighF,TemperatureAvgF,TemperatureLowF,DewpointHighF,DewpointAvgF,DewpointLowF,HumidityHigh,HumidityAvg,HumidityLow,PressureMaxIn,PressureMinIn,WindSpeedMaxMPH,WindSpeedAvgMPH,GustSpeedMaxMPH,PrecipitationSumIn
2013-2-1,18.0,12.6,8.1,13.9,-1.6,-99.9,89,73,70,30.20,29.79,5,-94,5,0.00
2013-2-2,23.0,15.1,6.8,20.5,4.9,-99.9,91,80,80,30.14,29.85,0,-70,0,0.00
2013-2-3,22.2,12.8,2.4,17.9,1.8,-99.9,95,77,71,29.93,29.76,0,-70,0,0.00
2013-2-4,23.4,21.4,16.2,19.4,18.3,11.7,92,88,82,29.93,29.78,0,0,0,0.00
2013-2-5,27.5,21.1,12.3,26.0,14.6,-99.9,96,85,73,29.86,29.72,0,-35,0,0.01
2013-2-6,31.0,23.0,9.6,24.4,16.6,8.0,95,77,58,30.21,29.86,2,0,2,0.06
2013-2-7,38.1,10.7,23.8,28.9,-54.4,-99.9,86,29,67,30.19,29.74,0,-629,0,0.03
2013-2-8,27.0,13.8,14.2,22.0,-30.2,-99.9,90,48,72,30.25,29.66,0,-410,0,0.03
2013-2-9,31.4,25.8,20.1,20.9,19.6,18.3,95,78,61,30.34,30.19,1,0,1,0.11
2013-2-10,39.3,8.5,20.2,29.3,-66.8,-99.9,95,21,64,30.19,29.58,0,-736,0,0.06
2013-2-11,33.5,2.2,33.0,27.5,-91.4,-99.9,79,5,77,29.77,29.45,0,-932,0,0.06
2013-2-12,30.6,1.2,30.5,25.2,-95.1,-99.9,80,3,78,29.94,29.77,0,-961,0,0.00
2013-2-13,-200.0,0.0,200.0,-99.9,-99.9,-99.9,0,0,100,29.82,29.78,0,-999,0,0.00
2013-2-14,-200.0,0.0,200.0,-99.9,-99.9,-99.9,0,0,100,29.64,29.54,0,-71,0,0.00
2013-2-16,18.2,13.6,9.1,13.3,6.3,-99.9,90,81,68,30.08,29.95,0,0,0,0.01
2013-2-17,24.3,18.0,13.0,15.0,9.6,6.4,83,70,49,30.12,29.96,0,0,0,0.00
2013-2-18,43.4,26.3,24.7,35.9,-16.6,-99.9,81,44,57,29.95,29.50,0,-369,0,0.00
2013-2-19,23.8,7.1,19.1,19.7,-62.0,-99.9,94,26,71,29.84,29.32,0,-672,0,0.00
2013-2-20,21.6,13.5,16.5,16.6,-26.4,-99.9,81,47,66,30.15,29.84,0,-347,0,0.00
2013-2-21,26.2,22.1,20.4,18.0,16.0,13.9,85,77,66,30.29,30.14,7,0,7,0.01
2013-2-22,32.4,26.9,21.5,31.6,18.1,-99.9,98,87,85,30.15,29.79,0,-76,0,0.01
2013-2-23,33.7,28.4,23.9,32.0,16.7,-99.9,100,72,61,29.82,29.76,0,-51,0,0.11
2013-2-24,35.7,23.2,20.7,27.6,0.2,-99.9,89,65,64,30.05,29.80,0,-186,0,0.06
2013-2-25,40.9,18.3,20.5,27.7,-36.3,-99.9,98,33,54,30.12,29.97,0,-414,0,0.02
2013-2-26,-200.0,0.0,200.0,-99.9,-99.9,-99.9,0,0,100,30.00,29.38,0,-999,0,0.02
2013-2-27,-200.0,0.0,200.0,-99.9,-99.9,-99.9,0,0,100,29.46,29.44,0,-999,0,0.00
2013-2-28,-200.0,0.0,200.0,-99.9,-99.9,-99.9,0,0,100,29.80,29.43,0,-791,0,0.00